Location: Unnamed
(48.8836°N, 1.0859°W)
Time: 14:46:05
(UTC+02:00)

ISS - Pass Details

Date: 29 September 2021
Orbit: 417 x 423 km, 51.6° (Epoch: 16 October)

Event Time Altitude Azimuth Distance (km) Brightness Sun altitude
Rises 20:08:21 0° 281° (W) 2,363 2.4 -4.3°
Reaches altitude 10° 20:10:29 10° 286° (WNW) 1,500 0.7 -4.7°
Maximum altitude 20:13:47 52° 4° (N) 531 -3.2 -5.2°
Drops below altitude 10° 20:17:05 10° 82° (E) 1,502 -1.6 -5.8°
Enters shadow 20:17:35 - 84° (E) 1,701 -1.3 -5.8°
